Morgantown, WV

11:49 AM EDT on June 23, 2017 (GMT -0400)
Morgantown Municipal-Hart

Weather History for KMGW - November, 2014

Change the Weather History Date:

Saturday, November 1, 2014

  Actual Average Record
Temperature  
Mean Temperature 42 °F 50 °F  
Max Temperature 46 °F 60 °F 80 °F (1950)
Min Temperature 37 °F 40 °F 27 °F (1954)
Degree Days  
Heating Degree Days 23 15  
Month to date heating degree days 23 15  
Since 1 July heating degree days 360 457  
Cooling Degree Days 0 0  
Month to date cooling degree days 0 0  
Year to date cooling degree days 981 813  
Moisture  
Dew Point 36 °F    
Average Humidity 74    
Maximum Humidity 89    
Minimum Humidity 59    
Precipitation  
Precipitation 0.11 in 0.11 in 1.04 in (1971)
Month to date precipitation 0.11 0.11  
Year to date precipitation 37.05 35.57  
Sea Level Pressure  
Sea Level Pressure 29.98 in    
Wind  
Wind Speed 9 mph (North)    
Max Wind Speed 18 mph    
Max Gust Speed 28 mph    
Visibility 8 miles    
Events Rain    
T = Trace of Precipitation, MM = Missing Value Source: NWS Daily Summary

Daily Weather History Graph

Daily Weather History Graph

Search for Another Location

Airport or City:

Trip Planner

Search our weather history database for the weather conditions in past years. The results will help you decide how hot, cold, wet, or windy it might be!

Date:

Astronomy

Nov. 01, 2014 Rise Set
Actual Time 7:48 AM EDT 6:17 PM EDT
Civil Twilight 7:20 AM EDT 6:45 PM EDT
Nautical Twilight 6:48 AM EDT 7:17 PM EDT
Astronomical Twilight 6:16 AM EDT 7:48 PM EDT
Moon 3:09 PM EDT (11/1) 1:43 AM EDT (11/1)
Length of Visible Light 11h 25m
Length of Day
10h 29m
Waxing Gibbous, 67% of the Moon is Illuminated
Nov 1
Waxing Gibbous
Nov 6
Full
Nov 14
Last Quarter
Nov 22
New
Nov 29
First Quarter

Hourly Weather History & Observations

Time (EDT) Temp. Windchill Dew Point Humidity Pressure Visibility Wind Dir Wind Speed Gust Speed Precip Events Conditions
12:06 AM 42.1 °F 38.4 °F 37.9 °F 85% 29.87 in 6.0 mi North 5.8 mph - 0.00 in Rain Light Rain
12:29 AM 43.0 °F 41.3 °F 37.9 °F 82% 29.87 in 6.0 mi North 3.5 mph - 0.01 in Rain Light Rain
12:53 AM 43.0 °F 41.3 °F 37.9 °F 82% 29.87 in 6.0 mi North 3.5 mph - 0.02 in Rain Light Rain
1:53 AM 43.0 °F - 39.0 °F 86% 29.87 in 4.0 mi Calm Calm - 0.03 in Rain Light Rain
2:04 AM 43.0 °F 41.3 °F 39.0 °F 86% 29.86 in 4.0 mi NNW 3.5 mph - 0.00 in Rain Light Rain
2:53 AM 43.0 °F 41.3 °F 39.0 °F 86% 29.87 in 5.0 mi North 3.5 mph - 0.01 in   Overcast
3:53 AM 43.0 °F 40.3 °F 39.0 °F 86% 29.87 in 5.0 mi North 4.6 mph - N/A   Overcast
4:13 AM 43.0 °F 40.3 °F 39.0 °F 86% 29.86 in 5.0 mi NNE 4.6 mph - N/A   Overcast
4:53 AM 44.1 °F 40.8 °F 39.0 °F 82% 29.88 in 5.0 mi North 5.8 mph - N/A   Haze
5:33 AM 43.0 °F 38.8 °F 39.0 °F 86% 29.88 in 5.0 mi North 6.9 mph - N/A   Overcast
5:49 AM 42.8 °F 38.6 °F 39.2 °F 87% 29.89 in 5.0 mi North 6.9 mph - 0.01 in   Overcast
5:53 AM 43.0 °F 38.2 °F 39.0 °F 86% 29.91 in 5.0 mi North 8.1 mph - 0.01 in Rain Light Rain
6:03 AM 43.0 °F 38.2 °F 39.0 °F 86% 29.90 in 5.0 mi North 8.1 mph - 0.00 in Rain Light Rain
6:53 AM 43.0 °F 37.2 °F 37.9 °F 82% 29.93 in 7.0 mi North 10.4 mph - 0.00 in   Overcast
7:02 AM 43.0 °F 37.2 °F 37.9 °F 82% 29.92 in 7.0 mi North 10.4 mph - N/A   Overcast
7:13 AM 43.0 °F 36.8 °F 37.0 °F 80% 29.92 in 9.0 mi North 11.5 mph - N/A   Overcast
7:28 AM 43.0 °F 38.8 °F 37.9 °F 82% 29.93 in 8.0 mi North 6.9 mph - N/A   Overcast
7:39 AM 43.0 °F 38.2 °F 37.9 °F 82% 29.93 in 7.0 mi North 8.1 mph - N/A   Overcast
7:53 AM 43.0 °F 37.7 °F 37.9 °F 82% 29.95 in 8.0 mi North 9.2 mph - N/A   Overcast
8:16 AM 43.0 °F 37.7 °F 37.9 °F 82% 29.94 in 8.0 mi North 9.2 mph - N/A   Overcast
8:32 AM 43.0 °F 37.2 °F 37.0 °F 80% 29.95 in 9.0 mi North 10.4 mph - N/A   Overcast
8:53 AM 43.0 °F 37.2 °F 37.0 °F 80% 29.97 in 10.0 mi North 10.4 mph - N/A   Overcast
9:30 AM 43.0 °F 36.4 °F 37.0 °F 80% 29.96 in 10.0 mi North 12.7 mph - N/A   Overcast
9:53 AM 43.0 °F 36.4 °F 37.0 °F 80% 29.99 in 9.0 mi North 12.7 mph - N/A   Overcast
10:34 AM 43.0 °F 35.7 °F 37.0 °F 80% 29.98 in 9.0 mi North 15.0 mph 18.4 mph N/A   Overcast
10:53 AM 43.0 °F 37.7 °F 37.9 °F 82% 30.00 in 10.0 mi North 9.2 mph - N/A   Overcast
11:09 AM 43.0 °F 36.8 °F 37.9 °F 82% 29.99 in 10.0 mi North 11.5 mph 17.3 mph N/A   Overcast
11:53 AM 44.1 °F 38.1 °F 37.0 °F 76% 30.01 in 10.0 mi North 11.5 mph - N/A   Overcast
12:53 PM 44.1 °F 37.7 °F 37.0 °F 76% 30.02 in 10.0 mi North 12.7 mph - N/A   Overcast
1:49 PM 46.4 °F 40.4 °F 35.6 °F 66% 29.99 in 10.0 mi NNW 13.8 mph 20.7 mph N/A   Overcast
1:53 PM 46.0 °F 39.9 °F 35.1 °F 66% 30.00 in 10.0 mi North 13.8 mph 24.2 mph N/A   Overcast
2:25 PM 45.0 °F 40.1 °F 36.0 °F 71% 29.99 in 10.0 mi NNW 9.2 mph - N/A   Overcast
2:53 PM 44.1 °F 38.6 °F 37.0 °F 76% 30.00 in 7.0 mi NNW 10.4 mph 20.7 mph 0.01 in Rain Light Rain
3:53 PM 45.0 °F 38.2 °F 35.1 °F 68% 30.01 in 10.0 mi North 15.0 mph 24.2 mph 0.00 in   Overcast
4:45 PM 42.1 °F 36.6 °F 35.1 °F 76% 30.02 in 2.5 mi NNW 9.2 mph 26.5 mph 0.04 in Rain Light Rain
4:53 PM 42.1 °F 36.1 °F 36.0 °F 79% 30.04 in 4.0 mi NNW 10.4 mph 20.7 mph 0.05 in Rain Light Rain
5:21 PM 42.1 °F 35.7 °F 36.0 °F 79% 30.04 in 10.0 mi NNW 11.5 mph 18.4 mph 0.01 in   Overcast
5:30 PM 42.1 °F 37.1 °F 35.1 °F 76% 30.04 in 10.0 mi NW 8.1 mph 19.6 mph 0.01 in   Overcast
5:53 PM 41.0 °F 35.8 °F 35.1 °F 79% 30.07 in 10.0 mi NW 8.1 mph 21.9 mph 0.01 in   Overcast
6:53 PM 41.0 °F 36.4 °F 33.1 °F 73% 30.09 in 10.0 mi NNW 6.9 mph 17.3 mph N/A   Overcast
7:53 PM 41.0 °F 34.7 °F 30.9 °F 67% 30.11 in 10.0 mi NNW 10.4 mph 18.4 mph N/A   Overcast
8:53 PM 39.9 °F 33.4 °F 28.9 °F 65% 30.13 in 10.0 mi NNW 10.4 mph 24.2 mph N/A   Overcast
9:53 PM 39.0 °F 32.3 °F 28.9 °F 67% 30.16 in 9.0 mi NNW 10.4 mph 16.1 mph 0.00 in   Unknown
10:20 PM 39.0 °F 31.8 °F 28.0 °F 65% 30.14 in 10.0 mi NNW 11.5 mph 24.2 mph 0.00 in   Overcast
10:53 PM 37.9 °F 30.0 °F 26.1 °F 62% 30.16 in 10.0 mi NNW 12.7 mph 21.9 mph 0.00 in   Overcast
11:53 PM 37.0 °F 31.0 °F 25.0 °F 62% 30.17 in 10.0 mi NNW 8.1 mph 19.6 mph N/A   Overcast